Overview Statistics Trail Chart Weather Telemetry Raw packets
 

This is the latest recevied weather packets stored in our database for station/object KD0MAC. If no packets are shown the sender has not sent any weather packets the latest 10 day(s).

<< 40 41 42 43 44 45 46 >>
Time Temp. Humidity Pressure Rain* Wind** Luminosity Snow
1788463724 38.33° C 25% 1009.8 hPa 0 mm - 549 W/m² -
1788463478 38.33° C 26% 1010.2 hPa 0 mm - 546 W/m² -
1788463425 38.33° C 26% 1010.2 hPa 0 mm - 546 W/m² -
1788463124 37.78° C 26% 1010.2 hPa 0 mm - 551 W/m² -
1788462875 37.78° C 27% 1010.2 hPa 0 mm - 550 W/m² -
1788462824 37.78° C 27% 1010.2 hPa 0 mm - 550 W/m² -
1788462526 37.22° C 30% 1010.2 hPa 0 mm - 552 W/m² -
1788462224 37.22° C 27% 1010.2 hPa 0 mm - 555 W/m² -
1788461924 37.22° C 26% 1010.2 hPa 0 mm - 555 W/m² -
1788461624 37.22° C 29% 1010.5 hPa 0 mm - 557 W/m² -
1788461376 37.22° C 29% 1010.5 hPa 0 mm - 558 W/m² -
1788461075 36.67° C 29% 1010.5 hPa 0 mm - 555 W/m² -
1788460775 36.67° C 29% 1010.5 hPa 0 mm - 556 W/m² -
1788460475 36.11° C 31% 1010.5 hPa 0 mm - 555 W/m² -
1788460427 36.11° C 31% 1010.5 hPa 0 mm - 555 W/m² -
1788460175 36.11° C 31% 1010.5 hPa 0 mm - 554 W/m² -
1788460124 36.11° C 31% 1010.5 hPa 0 mm - 554 W/m² -
1788459824 36.11° C 31% 1010.5 hPa 0 mm - 550 W/m² -
1788459524 36.11° C 31% 1010.5 hPa 0 mm - 552 W/m² -
1788459275 36.11° C 33% 1010.8 hPa 0 mm - 550 W/m² -
1788459224 36.11° C 33% 1010.8 hPa 0 mm - 550 W/m² -
1788458975 35.56° C 34% 1010.8 hPa 0 mm - 543 W/m² -
1788458924 35.56° C 34% 1010.8 hPa 0 mm - 543 W/m² -
1788458624 35.56° C 33% 1010.8 hPa 0 mm - 540 W/m² -
1788458324 35.56° C 35% 1010.8 hPa 0 mm - 537 W/m² -

* Rain latest hour (hover to see other rain measurements)
** Current wind speed in m/s (hover to see current wind gust speed)